Wind_Speed
18 18 16 17 17 16 16 16 16 17 17 18 18 17 17 16 15 14 12 12 12 13 12 11 10 7 4 3 2 2 1 2 2 2 2 3 4 4 3 3 4 3 2
19 18 15 14 14 14 13 13 14 15 16 17 17 17 16 16 15 14 13 12 12 11 11 10 9 6 4 3 2 2 1 1 1 2 3 4 5 5 5 5 5 5 6
19 19 17 15 14 13 13 12 11 11 12 14 14 14 14 14 14 13 12 11 10 10 10 9 8 6 5 3 2 2 2 2 2 3 4 6 6 6 6 5 5 5 6
17 17 16 16 15 14 13 12 11 9 9 10 11 11 11 11 12 12 12 10 9 8 8 8 7 6 5 4 3 3 3 3 3 4 6 7 9 8 7 6 6 5 5
15 14 14 14 13 12 11 11 10 9 9 8 8 8 9 10 10 11 11 10 8 7 7 7 7 6 6 6 5 5 4 4 4 5 6 8 9 9 8 7 8 7 7
12 11 11 11 11 10 9 9 8 8 8 8 8 8 8 8 9 9 8 8 7 6 5 5 5 6 7 7 7 8 7 6 6 6 7 8 9 9 9 9 9 9 9
7 6 6 7 8 8 8 9 9 9 8 7 7 6 5 5 5 6 6 7 7 6 5 5 4 5 6 7 8 9 10 9 9 9 9 9 10 11 11 11 11 11 11
5 4 3 3 4 5 6 7 8 8 7 7 6 5 3 3 3 4 5 7 7 7 6 5 4 5 6 7 8 9 11 12 12 12 12 11 11 12 12 11 10 11 11
4 2 1 2 3 4 5 6 7 8 8 8 8 8 6 5 5 5 6 6 7 7 7 6 5 6 7 7 8 10 11 12 13 12 13 12 12 12 12 11 10 11 12
3 2 1 1 2 3 4 5 6 8 9 10 11 11 10 9 8 7 7 7 7 7 8 8 7 8 8 8 8 10 11 13 14 14 13 12 13 13 13 12 13 13 13
5 4 4 4 4 4 5 6 7 8 9 11 12 13 13 13 11 10 9 8 7 7 8 9 8 9 10 10 9 10 12 13 14 15 14 14 14 14 13 13 14 15 16
8 7 8 9 10 10 10 10 11 11 11 11 12 14 14 14 13 13 11 10 8 8 8 10 10 10 10 11 10 10 11 13 14 16 17 17 16 15 15 15 15 16 18
13 13 14 16 17 16 15 14 13 14 14 13 14 14 14 14 13 13 12 11 10 10 10 12 12 12 12 11 11 11 11 12 14 16 18 19 19 18 17 17 17 18 19
17 17 18 19 19 18 17 16 15 16 16 15 15 15 15 15 15 15 13 12 11 12 12 13 13 14 13 12 12 12 13 13 14 16 17 19 20 20 20 19 19 20 20
20 20 20 20 19 18 18 19 18 18 17 17 16 16 16 17 17 16 14 13 14 14 14 13 14 15 15 14 14 14 14 15 16 17 18 19 20 21 21 21 21 21 21
23 23 23 22 21 21 21 22 22 22 21 19 19 18 18 19 19 18 18 16 16 16 15 15 16 17 17 16 16 15 16 17 18 18 19 20 20 20 20 20 21 21 22
25 25 25 25 24 24 25 26 26 26 25 24 23 22 21 21 21 20 20 19 18 17 17 17 18 19 18 18 17 17 18 19 20 20 20 20 21 20 19 19 20 21 22
28 28 28 28 27 28 29 30 30 31 31 29 28 26 25 25 24 22 22 22 20 20 20 20 20 20 20 19 19 19 20 21 21 20 20 20 21 21 20 20 20 21 22
32 31 31 31 31 32 33 34 34 35 36 36 34 31 30 29 27 25 23 23 22 22 22 22 23 23 22 21 21 21 22 21 20 19 19 20 21 22 22 21 21 21 22
34 34 34 34 35 36 37 38 38 39 41 42 40 37 35 32 30 27 24 24 23 23 24 24 25 25 24 24 23 22 22 21 19 18 19 20 22 23 22 22 22 23 23
37 36 36 37 38 39 40 41 42 43 44 44 44 42 39 35 32 30 28 26 25 25 26 26 26 26 25 25 24 23 22 21 19 19 20 21 22 23 23 23 24 25 25
38 36 36 38 40 42 43 44 45 45 43 43 42 42 42 39 35 32 31 29 28 28 28 28 27 26 25 24 23 23 22 22 21 21 21 22 22 23 24 25 26 27 27
37 38 39 40 42 44 45 46 48 48 48 45 44 42 41 41 39 36 35 33 32 32 31 30 29 26 24 23 23 23 23 23 24 23 23 23 23 24 25 26 27 28 28
38 40 41 43 44 46 48 49 50 51 51 50 47 43 40 40 40 39 37 36 35 34 32 30 27 27 26 24 24 24 25 25 25 26 26 25 25 25 26 27 28 28 28
41 42 44 46 47 49 51 52 53 54 55 56 54 52 48 44 43 42 39 36 35 33 31 28 27 28 28 27 27 27 27 27 27 28 28 28 28 27 27 28 29 29 27
43 45 47 48 50 52 53 55 56 57 58 58 58 56 54 51 48 44 42 39 36 34 32 30 29 29 30 30 30 29 29 30 30 30 30 31 30 29 29 29 29 28 27
Wind_Direction
93 94 95 95 95 94 94 95 96 97 96 93 89 85 82 78 77 75 71 68 67 67 66 68 72 80 88 92 84 64 15 345 329 300 285 284 294 300 301 306 314 313 335
85 89 91 91 93 91 90 91 93 95 94 92 88 83 80 77 77 78 74 68 63 62 63 66 69 74 79 74 57 41 18 355 318 297 296 297 298 297 293 293 293 280 265
77 82 87 90 92 91 90 89 90 90 88 88 86 82 77 73 73 74 74 69 63 59 56 56 56 57 60 55 37 14 350 338 311 291 298 303 303 301 294 287 288 281 259
70 75 80 84 87 89 89 88 87 87 87 87 87 85 80 74 70 70 69 68 64 57 50 46 40 33 29 24 12 354 335 321 306 294 298 303 305 303 299 290 286 291 283
69 68 71 74 76 77 78 76 72 73 77 80 83 83 80 76 73 70 66 64 59 53 46 39 33 20 6 357 350 345 339 329 317 304 302 305 306 307 306 301 295 292 296
71 61 60 63 62 58 55 51 47 47 53 58 63 68 69 70 69 66 61 55 48 41 33 25 22 15 2 348 339 334 331 330 325 318 314 312 312 312 310 305 301 297 294
70 53 47 51 50 45 38 30 25 23 24 30 38 48 55 59 55 47 37 33 29 23 12 3 356 356 351 343 335 329 325 320 319 318 318 316 314 314 312 305 301 297 296
79 61 43 36 26 20 15 12 8 4 358 355 354 353 351 349 355 0 4 3 1 360 357 348 335 334 337 335 330 326 325 322 321 319 317 315 313 314 315 309 298 293 293
114 103 54 5 345 342 345 350 352 350 342 331 322 314 310 306 304 313 327 336 337 338 339 335 323 319 323 329 329 325 323 325 326 323 317 315 312 312 316 317 304 291 290
170 189 206 281 318 327 331 335 341 342 336 327 317 307 298 292 288 291 303 311 315 322 329 332 321 313 316 319 321 321 317 319 323 323 318 311 307 306 306 306 305 298 292
219 234 251 263 276 289 301 310 318 331 333 329 324 314 302 291 286 285 291 296 300 305 312 317 317 310 309 311 312 312 310 309 310 314 314 311 307 305 300 298 301 299 295
246 265 283 289 289 286 283 291 302 315 323 324 322 316 308 298 290 286 285 285 288 294 297 298 300 303 302 302 305 310 311 308 305 306 307 306 303 300 297 295 297 299 299
261 276 288 293 292 287 280 283 297 310 317 318 318 313 307 301 295 289 284 283 288 296 299 297 294 294 294 294 297 302 307 309 308 306 305 303 299 295 290 289 292 295 298
266 275 282 288 286 281 278 283 293 303 311 313 313 310 303 297 292 290 286 286 292 299 302 300 298 296 292 290 291 295 297 302 307 309 309 303 298 295 291 287 287 291 296
268 272 275 279 282 280 278 282 289 294 300 302 303 304 298 293 288 287 285 286 290 295 301 304 302 300 295 291 291 292 291 296 304 308 311 307 301 296 295 290 286 288 292
266 270 270 271 275 276 275 277 283 287 289 291 292 294 290 286 283 282 281 283 287 289 291 298 300 300 297 293 292 293 292 295 301 305 306 306 302 297 295 293 290 288 290
262 265 265 265 266 269 271 274 278 281 282 283 283 284 281 278 276 275 274 277 281 284 287 293 297 299 296 292 290 291 292 294 299 301 302 302 302 299 295 292 290 289 289
259 260 260 261 261 264 267 270 274 276 277 277 277 277 275 272 269 268 268 272 277 282 286 291 294 296 293 290 289 292 294 296 298 298 298 298 301 301 297 292 289 288 289
256 257 258 259 260 262 266 270 273 275 276 275 273 271 270 268 263 263 265 269 274 280 285 288 291 292 291 290 291 293 296 297 297 297 297 298 301 303 301 297 293 290 291
254 255 256 256 257 261 266 270 274 275 275 274 273 269 267 263 259 259 263 267 273 280 285 287 288 289 289 290 292 293 294 295 296 298 298 300 301 301 301 298 294 293 292
257 256 255 255 256 259 264 268 271 273 273 274 272 268 265 260 255 256 258 264 272 279 285 287 286 285 285 288 291 292 291 290 292 295 296 298 299 299 298 297 295 294 293
256 255 254 255 256 259 262 265 269 272 273 273 272 273 266 258 254 253 257 263 271 278 282 285 285 281 280 283 287 288 287 285 286 289 291 293 296 296 297 297 296 295 294
254 254 255 256 258 260 262 264 266 268 268 270 272 276 274 265 259 256 258 263 269 275 277 281 280 275 274 278 282 284 285 286 288 290 289 290 292 293 294 296 298 296 292
251 253 254 256 258 260 262 263 265 266 268 271 274 276 279 274 267 263 260 264 270 273 273 275 271 268 270 272 276 279 281 285 290 293 293 291 291 292 293 296 299 297 291
251 252 253 254 256 258 260 261 263 265 267 270 273 275 277 279 275 267 262 265 269 268 268 267 263 264 266 269 273 275 277 282 287 291 292 292 292 292 292 294 298 298 291
254 253 253 254 255 256 257 259 262 265 268 271 274 276 277 277 274 268 262 265 263 263 264 259 258 261 264 267 270 273 276 281 285 287 287 288 289 289 289 291 296 296 290
Height
5925 5926 5926 5926 5926 5927 5927 5927 5926 5925 5924 5923 5923 5922 5922 5921 5921 5920 5919 5918 5917 5916 5914 5913 5912 5911 5910 5909 5909 5909 5908 5908 5908 5907 5907 5907 5906 5906 5905 5904 5904 5904 5904
5928 5928 5929 5929 5929 5929 5929 5929 5929 5928 5926 5925 5925 5924 5924 5923 5923 5922 5921 5920 5919 5917 5916 5914 5913 5912 5911 5910 5910 5909 5909 5908 5908 5908 5907 5907 5906 5905 5905 5904 5903 5903 5903
5930 5930 5931 5931 5931 5931 5931 5931 5931 5930 5929 5927 5926 5926 5926 5925 5925 5924 5922 5921 5920 5919 5918 5916 5915 5913 5912 5911 5910 5910 5910 5909 5908 5908 5907 5907 5906 5905 5904 5903 5902 5901 5901
5933 5932 5933 5933 5933 5933 5933 5932 5932 5931 5930 5929 5928 5927 5926 5926 5926 5925 5924 5922 5921 5920 5919 5917 5916 5915 5914 5913 5912 5911 5910 5910 5909 5908 5908 5907 5906 5905 5904 5902 5901 5901 5900
5935 5934 5934 5934 5934 5934 5934 5933 5933 5932 5931 5930 5929 5927 5927 5926 5926 5925 5925 5923 5922 5920 5919 5918 5917 5916 5915 5914 5913 5912 5911 5910 5909 5908 5907 5906 5905 5904 5903 5902 5901 5900 5900
5936 5936 5936 5935 5935 5935 5934 5934 5933 5933 5932 5931 5930 5929 5928 5927 5926 5925 5925 5924 5922 5921 5920 5918 5917 5916 5915 5914 5913 5912 5911 5910 5909 5908 5907 5906 5905 5904 5903 5902 5901 5900 5899
5937 5937 5936 5936 5936 5936 5935 5934 5934 5933 5933 5932 5931 5930 5928 5927 5926 5925 5924 5923 5922 5921 5920 5919 5918 5917 5915 5914 5913 5912 5911 5910 5908 5907 5906 5905 5904 5903 5902 5901 5900 5899 5898
5936 5936 5936 5936 5936 5935 5935 5934 5934 5933 5933 5932 5931 5930 5929 5927 5926 5925 5924 5923 5922 5920 5919 5918 5918 5917 5916 5915 5913 5912 5911 5909 5908 5907 5906 5904 5903 5902 5900 5899 5898 5898 5897
5935 5936 5935 5935 5935 5934 5934 5933 5933 5932 5932 5931 5930 5929 5928 5927 5925 5924 5923 5922 5921 5920 5919 5918 5917 5916 5915 5914 5913 5912 5910 5908 5907 5906 5905 5903 5902 5900 5899 5898 5897 5896 5895
5934 5934 5934 5934 5933 5933 5932 5932 5931 5931 5930 5930 5929 5928 5927 5925 5924 5923 5922 5921 5919 5918 5917 5916 5916 5915 5915 5913 5912 5911 5909 5908 5906 5905 5903 5902 5901 5899 5898 5897 5896 5894 5893
5932 5932 5932 5932 5931 5931 5931 5930 5929 5929 5928 5927 5927 5926 5925 5923 5922 5921 5920 5919 5918 5917 5916 5915 5914 5914 5913 5912 5911 5909 5908 5906 5905 5903 5902 5901 5899 5898 5897 5895 5894 5893 5891
5930 5930 5930 5929 5929 5928 5928 5928 5927 5926 5926 5925 5924 5923 5922 5921 5920 5919 5918 5917 5916 5915 5914 5913 5912 5911 5910 5910 5908 5907 5906 5905 5903 5902 5900 5899 5897 5896 5895 5893 5891 5890 5889
5927 5927 5926 5926 5925 5925 5925 5924 5924 5923 5923 5922 5921 5921 5920 5919 5917 5916 5915 5914 5913 5912 5911 5911 5910 5909 5908 5907 5906 5905 5904 5903 5901 5899 5898 5896 5894 5893 5892 5890 5888 5887 5885
5923 5923 5923 5922 5922 5921 5921 5921 5920 5920 5920 5919 5918 5918 5917 5916 5914 5913 5913 5912 5911 5910 5909 5908 5908 5907 5906 5904 5903 5902 5901 5900 5899 5897 5895 5893 5891 5889 5888 5887 5885 5884 5882
5920 5920 5920 5920 5919 5918 5918 5917 5917 5917 5916 5916 5915 5915 5914 5913 5911 5910 5909 5909 5908 5908 5907 5906 5905 5904 5903 5902 5901 5899 5898 5897 5896 5894 5892 5890 5888 5886 5884 5883 5882 5880 5879
5916 5916 5917 5917 5916 5915 5914 5914 5913 5912 5912 5911 5911 5911 5910 5909 5908 5907 5906 5906 5905 5905 5904 5903 5902 5901 5900 5899 5898 5896 5895 5894 5893 5891 5889 5887 5885 5883 5881 5879 5878 5876 5875
5912 5913 5913 5913 5912 5912 5911 5910 5909 5908 5907 5907 5907 5906 5906 5905 5904 5903 5903 5902 5901 5901 5900 5899 5898 5897 5896 5895 5894 5893 5892 5890 5889 5887 5886 5884 5881 5879 5878 5876 5875 5873 5871
5908 5908 5908 5908 5908 5907 5906 5905 5904 5903 5903 5902 5901 5901 5900 5900 5899 5898 5898 5898 5897 5896 5896 5895 5894 5893 5892 5891 5890 5889 5888 5886 5885 5883 5882 5880 5878 5876 5874 5873 5871 5869 5867
5903 5903 5904 5904 5903 5902 5901 5900 5899 5898 5897 5895 5895 5895 5894 5894 5893 5892 5893 5893 5892 5891 5891 5890 5889 5889 5888 5887 5886 5884 5883 5881 5880 5879 5878 5876 5874 5872 5870 5869 5867 5865 5862
5897 5897 5898 5898 5898 5897 5895 5895 5894 5892 5890 5887 5887 5887 5886 5887 5887 5886 5887 5886 5887 5886 5885 5885 5884 5884 5883 5882 5881 5879 5878 5877 5876 5874 5873 5872 5870 5868 5866 5864 5862 5860 5858
5890 5890 5891 5891 5891 5890 5889 5888 5886 5884 5881 5879 5877 5876 5877 5878 5879 5880 5880 5880 5880 5880 5879 5879 5879 5878 5878 5877 5876 5874 5873 5872 5871 5870 5869 5867 5866 5864 5862 5860 5858 5856 5853
5883 5883 5883 5883 5883 5883 5882 5881 5879 5876 5873 5870 5867 5867 5868 5870 5871 5872 5873 5872 5872 5873 5872 5872 5872 5872 5872 5871 5871 5869 5868 5868 5866 5865 5864 5862 5861 5860 5858 5856 5853 5851 5848
5875 5875 5875 5875 5875 5874 5874 5873 5871 5869 5866 5862 5861 5861 5861 5862 5863 5864 5865 5865 5865 5865 5865 5865 5866 5865 5866 5866 5865 5865 5864 5862 5861 5861 5860 5858 5857 5855 5853 5851 5849 5846 5843
5866 5866 5867 5867 5866 5866 5865 5864 5862 5860 5858 5856 5856 5856 5857 5857 5857 5857 5857 5858 5858 5858 5858 5858 5858 5859 5860 5860 5860 5859 5859 5857 5856 5855 5854 5853 5852 5851 5849 5846 5844 5841 5838
5856 5857 5857 5857 5857 5856 5855 5854 5853 5851 5850 5848 5848 5849 5850 5850 5850 5849 5849 5850 5850 5850 5851 5851 5852 5852 5853 5853 5853 5853 5853 5852 5851 5850 5848 5847 5846 5845 5844 5841 5839 5836 5833
5847 5847 5848 5848 5847 5846 5845 5844 5843 5842 5841 5840 5839 5839 5840 5841 5841 5841 5841 5842 5842 5843 5843 5844 5844 5845 5845 5846 5846 5846 5846 5846 5845 5844 5843 5841 5840 5839 5837 5835 5833 5831 5828